Regional Weather Roundup
Issued by NWS

Home | Current Version | Previous Version | Graphics & Text | Print | Product List | Glossary On
Versions: 1 2 3 4 5 6 7 8 9 10 11 12 13 14 15 16 17 18 19 20 21 22 23 24 25 26 27 28 29 30 31 32 33 34 35 36 37 38 39 40 41 42 43 44 45 46 47 48 49 50
617
ASUS45 KSLC 271810
RWRUT

UTAH REGIONAL WEATHER ROUNDUP
NATIONAL WEATHER SERVICE SALT LAKE CITY UT
1200 PM MDT SAT MAY 27 2017

UTZ001>011-023>025-271900-

NORTHERN UTAH

CITY           SKY/WX    TMP DP  RH WIND       PRES   REMARKS
BRIGHAM CITY   SUNNY     60  37  43 CALM      30.23S
HILL AFB       SUNNY     58  36  43 N6        30.23R
LOGAN          SUNNY     60  39  45 MISG      30.23S
OGDEN          SUNNY     59  36  42 CALM      30.22S
SALT LAKE CITY MOSUNNY   63  36  36 W9        30.22S
TOOELE VALLEY  SUNNY     59  36  41 NW8       30.24S
WENDOVER       SUNNY     61  37  41 SE6       30.24S
HEBER CITY     SUNNY     61  28  29 NE10G16   30.20F
WEST JORDAN    SUNNY     60  43  52 NW14G20   30.23R

$$

UTZ011>015-024>027-271900-

CENTRAL/NORTHEAST UTAH

CITY           SKY/WX    TMP DP  RH WIND       PRES   REMARKS
PROVO AIRPORT  SUNNY     59  38  45 W8        30.23R
MOAB/CANYONLAN SUNNY     72  22  15 NW14G25   30.07S
DELTA          SUNNY     63  30  29 NE5       30.21S
PRICE          SUNNY     63  28  26 W8G18     30.15S
ROOSEVELT      SUNNY     64  30  27 S8        30.19R
VERNAL         PTSUNNY   61  32  33 SW6       30.17R

$$

UTZ013>016-019>022-027-271900-

SOUTHERN UTAH

CITY           SKY/WX    TMP DP  RH WIND       PRES   REMARKS
BRYCE CANYON   MOSUNNY   59  27  29 VRB3      30.24R
CEDAR CITY     SUNNY     67  31  26 N6G21     30.18R
MILFORD        SUNNY     64  31  28 N15G23    30.20R
ST GEORGE      CLEAR     77  33  20 VRB5      30.05S
HANKSVILLE     SUNNY     72  25  17 CALM      30.11F
BLANDING       PTSUNNY   68  29  22 SW15G21   30.18S

$$

REGIONAL REPORTS     COLORADO/ARIZONA

CITY           SKY/WX    TMP DP  RH WIND       PRES   REMARKS
CRAIG, CO      CLOUDY    51  43  74 S8        30.20R
GRAND JUNCTION SUNNY     66  29  24 W12       30.10S
RIFLE, CO      CLOUDY    60  32  34 W14G21    30.15R
MONTROSE, CO   CLOUDY    62  31  31 MISG      30.14F
CORTEZ, CO     MOSUNNY   69  28  21 W13       30.12S
COLORADO CITY    N/A     75  32  20 CALM      30.15S
PAGE, AZ       SUNNY     73  31  21 VRB3      30.08S
GRAND CANYON   SUNNY     66  23  19 VRB3      30.21R
KINGMAN, AZ    SUNNY     81  34  18 VRB3      30.05S
FLAGSTAFF, AZ  SUNNY     65  22  19 VRB6      30.20F

$$

REGIONAL REPORTS    NEVADA/IDAHO/WYOMING

CITY           SKY/WX    TMP DP  RH WIND       PRES   REMARKS
LAS VEGAS, NV  MOSUNNY   84  27  12 NE13      29.99S
ELY, NY        SUNNY     59  29  31 MISG      30.24S
ELKO, NV       SUNNY     65  28  24 NE12      30.23S
POCATELLO, ID  MOSUNNY   57  48  72 N5        30.26S
BURLEY, ID     SUNNY     61  42  49 CALM      30.23R
FORT BRIDGER,    N/A     54  31  40 W6        30.28S
EVANSTON, WY   MOSUNNY   52  29  41 N10       30.27R
ROCK SPRINGS,  MOSUNNY   51  27  39 VRB6      30.23S
KEMMERER, WY     N/A     52  30  43 W8        30.26R

$$




USA.gov is the U.S. government's official web portal to all federal, state and local government web resources and services.